Home   Weather   Medan   Past weeks

Flag for Indonesia Past Weather in Medan, North Sumatra, Indonesia — Yesterday and Last 2 Weeks

Now
81 °F

Passing clouds.


Feels Like: 86 °F
Forecast: 75 / 79 °F
Wind: No wind

Location: Medan / Polonia

Current Time: Jan 22, 2017 at 7:24:25 pm

Latest Report: Jan 22, 2017 at 7:00 pm


Visibility: 5 mi

Pressure: 29.83 "Hg

Humidity: 84%

Dew Point: 75 °F

Location of MedanLocation

Past Weather in Medan — Graph

°F

Medan Temperature Yesterday

Maximum temperature yesterday: 86 °F (at 12:00 pm)
Minimum temperature yesterday: 75 °F (at 12:00 am)
Average temperature yesterday: 80 °F

High & Low Weather Summary for the Past Weeks

 TemperatureHumidityPressure
High90 °F (Jan 11, 11:30 am)100% (Jan 8, 3:00 am)29.92 "Hg (Jan 8, 3:00 am)
Low73 °F (Jan 15, 7:00 am)52% (Jan 11, 11:30 am)29.62 "Hg (Jan 8, 4:00 pm)
Average80 °F87%29.80 "Hg
* Reported Jan 7 6:00 pm — Jan 22 6:00 pm, Medan, Weather by CustomWeather, © 2017

Note: Actual official high and low records may vary slightly from our data, if they occured in-between our weather recording intervals... More about our weather records

Advertising

Medan Weather History for the Previous 24 Hours

Scroll right to see more
 ConditionsComfort  
Time TempWeatherWind HumidityBarometerVisibility
6:00 pm
Sun, Jan 22
82 °FScattered clouds.No wind79%29.80 "Hg6 mi
5:30 pm82 °FPassing clouds.5 mph74%29.80 "HgN/A
5:00 pm84 °FPassing clouds.6 mph66%29.80 "HgN/A
4:30 pm84 °FPassing clouds.3 mph66%29.80 "Hg6 mi
4:00 pm84 °FPassing clouds.7 mph66%29.80 "Hg6 mi
3:30 pm82 °FPassing clouds.7 mph70%29.80 "Hg6 mi
3:00 pm82 °FScattered clouds.14 mph70%29.83 "Hg6 mi
2:30 pm82 °FScattered clouds.9 mph74%29.83 "Hg6 mi
2:00 pm79 °FLight rain. Scattered clouds.12 mph89%29.86 "Hg4 mi
1:30 pm82 °FScattered clouds.9 mph79%29.86 "HgN/A
1:00 pm82 °FScattered clouds.6 mph84%29.89 "HgN/A
12:30 pm82 °FScattered clouds.5 mph84%29.89 "HgN/A
12:00 pm84 °FScattered clouds.6 mph79%29.92 "HgN/A
11:30 am84 °FScattered clouds.3 mph74%29.92 "HgN/A
11:00 am82 °FScattered clouds.5 mph84%29.92 "HgN/A
10:30 am82 °FScattered clouds.No wind84%29.92 "HgN/A
10:00 am82 °FScattered clouds.No wind89%29.92 "Hg4 mi
9:30 am81 °FScattered clouds.No wind94%29.92 "Hg3 mi
8:30 am79 °FScattered clouds.No wind94%29.92 "Hg2 mi
8:00 am77 °FScattered clouds.No wind100%29.89 "Hg2 mi
7:30 am75 °FScattered clouds.No wind100%29.89 "Hg2 mi
7:00 am75 °FFog.No wind100%29.86 "Hg1 mi
6:30 am75 °FFog.No wind100%29.86 "Hg1 mi
6:00 am75 °FPassing clouds.No wind100%29.86 "Hg2 mi
5:30 am77 °FPassing clouds.No wind94%29.86 "Hg2 mi
5:00 am77 °FFog.No wind94%29.86 "Hg2 mi
4:30 am77 °FFog.No wind94%29.86 "Hg2 mi
4:00 am77 °FPassing clouds.3 mph94%29.86 "Hg3 mi
3:30 am77 °FPassing clouds.5 mph100%29.86 "Hg4 mi
3:00 am77 °FPassing clouds.7 mph100%29.86 "Hg4 mi
2:30 am77 °FPassing clouds.7 mph100%29.89 "Hg3 mi
2:00 am79 °FPassing clouds.5 mph94%29.89 "Hg4 mi
1:30 am77 °FPassing clouds.No wind100%29.89 "Hg4 mi
1:00 am79 °FPassing clouds.6 mph94%29.92 "Hg3 mi
12:30 am79 °FPassing clouds.7 mph94%29.92 "Hg4 mi
12:00 am79 °FPassing clouds.5 mph94%29.92 "Hg4 mi
11:30 pm
Sat, Jan 21
79 °FPassing clouds.6 mph94%29.92 "Hg4 mi
11:00 pm79 °FPassing clouds.7 mph94%29.92 "Hg4 mi
10:30 pm81 °FPassing clouds.No wind89%29.92 "Hg4 mi
10:00 pm81 °FPassing clouds.5 mph89%29.92 "Hg5 mi
9:30 pm81 °FPassing clouds.No wind89%29.92 "HgN/A
9:00 pm82 °FPassing clouds.No wind84%29.89 "HgN/A
8:30 pm81 °FPassing clouds.7 mph89%29.89 "HgN/A
8:00 pm81 °FPassing clouds.8 mph89%29.86 "HgN/A
7:30 pm82 °FPassing clouds.9 mph84%29.86 "HgN/A
7:00 pm82 °FPassing clouds.6 mph79%29.83 "HgN/A
Weather by CustomWeather, © 2017

See weather overviewHow to use our weather pages